Date,TemperatureHighF,TemperatureAvgF,TemperatureLowF,DewpointHighF,DewpointAvgF,DewpointLowF,HumidityHigh,HumidityAvg,HumidityLow,PressureMaxIn,PressureMinIn,WindSpeedMaxMPH,WindSpeedAvgMPH,GustSpeedMaxMPH,PrecipitationSumIn
2013-1-1,43,35,27,18,14,11,64,43,32,30.32,30.25,5,2,12,0.00
2013-1-2,49,40,32,16,13,11,42,33,26,30.31,30.15,9,4,18,0.00
2013-1-3,50,40,33,14,11,6,40,30,22,30.29,30.16,9,4,18,0.00
2013-1-4,50,37,27,9,6,2,35,27,19,30.36,30.26,5,3,9,0.00
2013-1-5,51,39,29,12,6,-1,32,26,20,30.39,30.20,4,2,9,0.00
2013-1-6,48,42,36,32,22,9,78,47,27,30.19,29.98,13,3,25,0.02
2013-1-7,51,43,35,32,22,15,86,47,27,30.10,29.97,9,4,22,0.03
2013-1-8,62,52,44,33,28,15,52,39,26,30.18,30.05,10,4,18,0.00
2013-1-9,63,53,43,33,30,28,58,43,32,30.17,29.84,14,4,30,0.00
2013-1-10,53,42,32,36,28,12,84,59,38,29.96,29.72,12,6,26,0.02
2013-1-11,42,34,24,17,15,9,61,46,32,30.13,29.96,7,2,16,0.00
2013-1-12,39,30,21,18,11,5,62,45,28,30.19,30.06,5,2,10,0.00
2013-1-13,38,28,18,9,5,2,55,39,29,30.26,30.12,5,2,11,0.00
2013-1-14,35,27,20,3,-1,-4,41,30,20,30.46,30.26,10,6,20,0.00
2013-1-15,46,36,26,20,12,0,45,37,30,30.55,30.44,11,5,24,0.00
2013-1-16,54,44,37,23,20,17,48,38,29,30.49,30.32,9,5,19,0.00
2013-1-17,57,47,39,19,16,13,36,29,22,30.35,30.23,7,4,18,0.00
2013-1-18,58,46,35,19,15,12,39,30,22,30.32,30.21,4,3,10,0.00
2013-1-19,59,46,38,18,14,11,35,28,20,30.33,30.22,4,3,10,0.00
2013-1-20,60,48,38,17,12,9,32,24,17,30.26,30.14,5,3,13,0.00
2013-1-21,63,50,40,14,11,7,27,21,14,30.22,30.12,7,3,14,0.00
2013-1-22,64,51,37,20,13,5,33,22,16,30.22,30.12,5,3,10,0.00
2013-1-23,70,58,47,34,28,19,40,32,24,30.16,30.04,6,3,13,0.00
2013-1-24,59,53,48,42,36,28,70,53,35,30.16,30.01,6,1,13,0.00
2013-1-25,52,49,46,48,45,40,93,88,69,30.17,29.98,2,0,6,0.33
2013-1-26,55,33,48,50,-6,-100,93,55,81,29.97,29.84,6,2,18,0.10
2013-1-27,52,47,38,45,36,30,85,69,45,29.90,29.82,11,7,23,0.00
2013-1-28,45,39,31,32,23,18,79,53,35,30.14,29.90,8,3,17,0.00
2013-1-29,58,43,29,35,26,17,67,52,38,30.27,30.10,5,1,13,0.00
2013-1-30,58,49,43,33,31,28,59,50,39,30.34,30.23,6,2,13,0.00
2013-1-31,61,50,41,34,31,29,62,49,34,30.28,30.15,6,2,13,0.00
2013-2-1,63,52,42,34,32,29,59,47,33,30.24,30.14,5,3,9,0.00
2013-2-2,63,54,46,41,31,29,71,43,30,30.26,30.14,4,2,10,0.01
2013-2-3,61,53,44,42,38,33,76,58,40,30.14,29.98,7,2,15,0.01
2013-2-4,65,53,43,35,31,23,66,44,30,30.09,29.97,6,3,12,0.00
2013-2-5,66,55,44,34,28,23,49,37,24,30.01,29.86,7,4,15,0.00
2013-2-6,62,51,39,34,26,20,74,39,22,30.05,29.82,8,3,18,0.00
2013-2-7,62,51,40,31,24,14,61,36,22,30.06,29.80,12,5,27,0.00
2013-2-8,43,37,30,32,28,22,84,69,55,29.83,29.74,16,8,34,0.01
2013-2-9,49,38,27,28,24,18,78,58,34,30.05,29.83,6,2,13,0.00
2013-2-10,48,38,29,27,23,20,71,56,38,30.06,29.97,5,2,14,0.00
2013-2-11,45,37,30,29,17,8,87,49,23,30.27,30.04,9,4,23,0.01
2013-2-12,52,40,30,18,13,8,43,34,24,30.38,30.27,7,2,16,0.00
2013-2-13,59,48,38,24,19,14,40,33,26,30.30,30.15,8,3,16,0.00
2013-2-14,62,52,43,28,24,21,45,35,25,30.22,30.12,9,4,17,0.00
2013-2-15,62,51,43,24,22,19,45,33,22,30.31,30.20,9,3,21,0.00
2013-2-16,65,52,39,24,19,14,40,28,19,30.30,29.98,5,3,10,0.00
2013-2-17,67,53,40,27,20,14,38,28,18,29.98,29.81,5,2,11,0.00
2013-2-18,63,52,41,31,24,17,49,35,23,29.97,29.82,8,4,16,0.00
2013-2-19,50,43,35,32,25,15,78,52,32,29.81,29.57,13,6,27,0.00
2013-2-20,48,37,28,30,27,24,88,68,41,29.94,29.55,11,4,29,0.09
2013-2-21,47,38,29,27,21,13,70,50,31,30.10,29.94,7,2,16,0.00
2013-2-22,55,43,30,24,17,11,55,37,24,30.21,30.11,7,2,15,0.00
2013-2-23,64,50,39,30,26,16,53,40,25,30.15,29.77,9,5,21,0.00
2013-2-24,49,41,34,16,8,6,37,25,18,30.24,29.99,15,8,31,0.00
2013-2-25,59,45,32,18,13,7,37,28,19,30.26,30.03,4,2,12,0.00
2013-2-26,56,46,35,20,14,9,41,28,16,30.19,30.00,10,4,19,0.00
2013-2-27,55,45,34,15,11,7,37,26,18,30.35,30.20,9,3,19,0.00
2013-2-28,63,50,39,18,13,7,28,22,16,30.40,30.32,6,2,14,0.00
2013-3-1,69,57,45,28,19,13,30,23,18,30.39,30.24,4,2,13,0.00
2013-3-2,73,60,45,32,27,20,42,29,19,30.28,30.01,7,4,17,0.00
2013-3-3,67,60,52,37,29,20,52,32,20,30.01,29.77,13,6,27,0.00
2013-3-4,66,55,44,36,33,28,62,44,30,30.02,29.80,8,4,19,0.00
2013-3-5,66,56,43,39,35,28,66,46,34,30.02,29.87,11,5,22,0.00
2013-3-6,63,52,42,37,30,19,67,45,26,29.95,29.85,11,4,23,0.00
2013-3-7,54,47,41,38,33,25,66,58,46,29.88,29.79,11,4,25,0.00
2013-3-8,48,42,36,35,30,25,84,64,41,29.91,29.69,13,7,26,0.07
2013-3-9,55,47,36,32,29,25,78,52,36,30.16,29.91,9,4,20,0.00
2013-3-10,62,53,45,26,20,16,40,28,19,30.27,30.15,11,5,22,0.00
2013-3-11,71,56,42,24,18,13,31,23,16,30.19,30.02,5,2,11,0.00
2013-3-12,75,61,47,32,24,16,32,25,20,30.10,30.01,5,3,11,0.00
2013-3-13,79,65,51,34,29,24,35,27,18,30.14,30.03,5,3,12,0.00
2013-3-14,84,69,54,37,32,27,37,27,18,30.08,29.95,5,3,11,0.00
2013-3-15,83,70,59,38,34,30,37,28,17,29.96,29.76,10,4,21,0.00
2013-3-16,80,69,56,37,30,24,33,24,17,29.77,29.69,8,3,17,0.00
2013-3-17,76,67,54,32,26,17,33,22,15,29.84,29.70,8,3,20,0.00
2013-3-18,75,62,46,35,26,20,42,27,16,29.92,29.78,6,2,14,0.00
2013-3-19,74,64,54,39,31,26,41,30,21,29.97,29.85,10,3,20,0.00
2013-3-20,73,63,53,41,36,31,46,37,28,29.95,29.78,6,3,14,0.00
2013-3-21,77,63,51,37,31,16,45,31,18,29.78,29.63,6,3,14,0.00
2013-3-22,71,59,47,35,25,16,45,28,15,29.79,29.62,9,4,20,0.00
2013-3-23,64,54,45,24,15,10,38,22,13,30.02,29.79,8,2,14,0.00
2013-3-24,69,56,43,20,16,12,31,22,15,30.02,29.88,5,2,13,0.00
2013-3-25,75,62,48,32,24,16,31,23,18,29.93,29.80,8,3,18,0.00
2013-3-26,74,64,55,37,29,23,41,28,16,29.84,29.72,9,4,20,0.00
2013-3-27,70,60,48,42,34,26,53,39,30,29.88,29.75,10,4,21,0.00
2013-3-28,73,61,48,38,34,29,49,38,27,29.96,29.86,8,3,19,0.00
2013-3-29,75,64,49,42,37,32,51,37,22,30.02,29.93,7,3,15,0.00
2013-3-30,77,67,58,41,38,32,45,35,23,29.97,29.85,7,3,17,0.00
2013-3-31,69,61,50,44,39,35,67,45,29,29.91,29.82,10,5,24,0.00
2013-4-1,71,55,41,40,34,27,70,48,25,29.98,29.87,7,2,14,0.00
2013-4-2,73,60,46,36,32,25,56,36,24,30.00,29.89,6,3,15,0.00
2013-4-3,79,66,51,42,34,27,43,32,21,30.01,29.90,6,3,13,0.00
2013-4-4,78,67,59,42,36,30,44,33,19,29.94,29.82,10,5,24,0.00
2013-4-5,78,62,47,43,35,22,51,37,23,29.89,29.80,7,2,16,0.00
2013-4-6,77,63,47,44,36,24,64,38,23,29.90,29.78,7,2,17,0.00
2013-4-7,77,63,49,42,35,28,56,36,25,29.83,29.61,8,3,17,0.00
2013-4-8,59,52,49,42,34,25,72,51,31,29.65,29.40,15,7,32,0.00
2013-4-9,64,54,45,25,19,15,38,27,16,29.96,29.65,12,7,27,0.00
2013-4-10,71,60,47,23,20,16,35,22,13,30.08,29.93,12,6,23,0.00
2013-4-11,76,65,56,37,30,21,38,26,20,29.93,29.61,9,4,21,0.00
2013-4-12,80,67,54,40,35,31,45,32,20,29.76,29.65,7,3,18,0.00
2013-4-13,76,67,56,42,35,29,43,31,22,29.72,29.56,14,8,28,0.00
2013-4-14,79,65,50,42,36,29,47,35,25,29.61,29.48,7,3,17,0.00
2013-4-15,69,56,45,42,37,30,69,50,33,29.60,29.50,8,3,17,0.00
2013-4-16,60,50,40,36,29,20,71,47,28,29.88,29.60,11,4,25,0.00
2013-4-17,59,50,43,26,17,10,50,29,17,30.13,29.88,10,6,22,0.00
2013-4-18,63,53,45,18,13,9,27,21,14,30.24,30.13,9,6,20,0.00
2013-4-19,74,60,45,22,16,8,22,18,13,30.20,29.93,5,2,13,0.00
2013-4-20,81,67,52,32,27,19,30,23,17,29.95,29.83,8,3,17,0.00
2013-4-21,83,72,58,38,33,27,36,25,18,29.90,29.78,9,4,21,0.00
2013-4-22,84,71,56,42,34,26,38,27,16,29.82,29.64,8,3,18,0.00
2013-4-23,75,65,56,35,26,16,39,23,15,29.87,29.66,10,4,21,0.00
2013-4-24,79,66,55,36,26,18,35,23,15,29.82,29.69,7,3,19,0.00
2013-4-25,78,65,53,40,34,28,45,33,21,29.92,29.69,7,3,16,0.00
2013-4-26,81,68,52,39,33,25,42,28,17,30.03,29.92,6,3,14,0.00
2013-4-27,86,73,57,35,28,21,34,21,11,30.02,29.86,6,3,17,0.00
2013-4-28,91,77,61,36,30,23,25,18,12,29.88,29.68,6,3,14,0.00
2013-4-29,91,78,63,39,32,26,26,20,14,29.70,29.54,9,4,21,0.00
2013-4-30,82,74,63,44,35,19,38,25,13,29.60,29.51,11,4,26,0.00
2013-5-1,79,69,57,37,22,7,40,19,10,30.03,29.60,9,5,22,0.00
2013-5-2,75,63,52,16,12,9,18,14,10,30.19,30.05,12,5,24,0.00
2013-5-3,85,70,54,26,18,9,20,14,11,30.06,29.72,5,3,15,0.00
2013-5-4,81,70,58,32,25,19,26,19,13,29.72,29.51,12,6,27,0.00
2013-5-5,69,62,55,41,31,20,59,33,20,29.73,29.54,14,9,29,0.00
2013-5-6,66,56,48,44,41,35,70,56,42,29.86,29.71,12,8,29,0.00
2013-5-7,65,55,47,41,38,33,68,52,38,29.93,29.85,10,5,21,0.00
2013-5-8,69,58,44,43,39,32,68,50,35,29.99,29.90,7,3,16,0.00
2013-5-9,75,62,51,52,43,38,76,51,29,29.95,29.87,6,2,13,0.21
2013-5-10,81,69,56,47,43,38,65,41,24,30.01,29.91,7,3,19,0.00
2013-5-11,87,75,62,43,39,34,43,29,19,30.01,29.91,6,3,14,0.00
2013-5-12,92,79,64,42,37,33,32,23,13,29.99,29.84,6,2,17,0.00
2013-5-13,95,83,67,45,39,32,33,22,14,29.88,29.74,6,3,16,0.00
2013-5-14,90,79,66,38,33,24,27,20,14,29.76,29.66,13,5,28,0.00
2013-5-15,86,73,59,47,36,21,43,26,19,29.79,29.68,8,4,18,0.00
2013-5-16,83,71,58,46,37,29,41,30,15,29.73,29.62,13,4,27,0.00
2013-5-17,76,66,57,47,42,36,65,42,29,29.77,29.65,10,4,22,0.00
2013-5-18,83,67,50,46,40,34,61,39,20,29.86,29.76,7,3,15,0.00
2013-5-19,86,71,56,42,35,30,52,28,18,29.84,29.73,7,3,16,0.00
2013-5-20,82,72,60,34,30,19,29,22,16,29.91,29.80,8,3,18,0.00
2013-5-21,87,74,57,46,33,18,35,23,16,29.84,29.62,10,5,22,0.00
2013-5-22,82,72,60,41,30,23,31,22,12,29.63,29.50,11,7,28,0.00
2013-5-23,75,65,50,43,33,18,65,34,12,29.73,29.54,12,4,25,0.00
2013-5-24,80,67,52,38,31,19,42,28,14,29.81,29.72,11,4,23,0.00
2013-5-25,78,68,50,39,26,15,37,22,13,29.82,29.74,11,4,25,0.00
2013-5-26,78,66,51,45,34,22,49,31,23,29.84,29.76,11,3,23,0.00
2013-5-27,87,70,54,48,40,35,52,35,19,29.79,29.65,7,2,15,0.00
2013-5-28,82,70,58,50,44,38,52,39,29,29.65,29.53,8,3,18,0.00
2013-5-29,88,73,60,51,42,33,46,34,23,29.65,29.53,8,4,18,0.00
2013-5-30,88,75,58,51,45,37,49,36,26,29.70,29.60,8,4,19,0.00
2013-5-31,92,79,63,50,42,37,51,30,16,29.77,29.66,9,3,21,0.00
2013-6-1,95,83,69,42,37,33,31,21,13,29.74,29.61,6,3,14,0.00
2013-6-2,92,83,69,49,40,32,28,22,18,29.62,29.48,10,5,24,0.00
2013-6-3,89,79,64,46,37,26,31,22,17,29.63,29.51,8,4,19,0.00
2013-6-4,90,79,64,41,31,21,25,18,12,29.70,29.62,7,3,17,0.00
2013-6-5,95,82,65,43,33,23,22,18,13,29.76,29.65,7,3,17,0.00
2013-6-6,99,86,68,45,38,30,25,19,14,29.69,29.58,6,4,17,0.00
2013-6-7,102,88,70,48,40,33,26,19,12,29.62,29.52,6,2,18,0.00
2013-6-8,101,88,78,52,42,36,39,21,12,29.63,29.53,9,4,19,0.00
2013-6-9,91,81,71,51,44,27,43,28,18,29.68,29.60,8,3,17,0.00
2013-6-10,87,77,67,41,33,28,27,20,14,29.72,29.63,12,6,26,0.00
2013-6-11,96,81,62,42,35,23,28,20,15,29.79,29.70,8,3,20,0.00
2013-6-12,92,83,70,49,39,30,26,21,18,29.75,29.67,7,4,18,0.00
2013-6-13,92,79,62,43,36,30,32,22,15,29.78,29.68,8,3,19,0.00
2013-6-14,91,78,58,40,29,18,26,17,10,29.74,29.62,8,3,17,0.00
2013-6-15,89,77,59,36,23,10,21,14,8,29.73,29.64,8,3,22,0.00
2013-6-16,92,77,58,39,25,13,27,15,7,29.82,29.73,5,2,14,0.00
2013-6-17,93,79,61,44,34,26,29,21,12,29.80,29.68,6,2,14,0.00
2013-6-18,90,77,61,46,36,26,35,23,14,29.70,29.58,10,4,24,0.00
2013-6-19,90,76,58,46,38,29,43,26,12,29.65,29.57,7,2,15,0.00
2013-6-20,90,75,58,46,36,29,37,26,14,29.69,29.59,6,3,17,0.00
2013-6-21,89,76,60,44,37,25,38,25,15,29.71,29.63,6,2,18,0.00
2013-6-22,91,78,60,46,39,33,40,26,15,29.71,29.60,6,2,13,0.00
2013-6-23,86,76,64,48,41,36,42,30,17,29.63,29.52,9,4,22,0.00
2013-6-24,80,72,63,52,45,34,52,38,21,29.71,29.56,11,5,25,0.00
2013-6-25,92,78,62,56,51,44,57,40,29,29.80,29.70,5,2,14,0.00
2013-6-26,94,84,74,58,55,52,47,38,29,29.80,29.73,8,4,18,0.00
2013-6-27,98,87,71,57,55,47,52,35,25,29.86,29.77,7,3,15,0.00
2013-6-28,105,91,77,53,48,41,32,23,16,29.80,29.65,6,3,17,0.00
2013-6-29,108,93,80,52,48,43,31,22,15,29.68,29.56,7,3,20,0.00
2013-6-30,107,94,81,56,49,38,31,22,16,29.62,29.51,7,4,17,0.00
2013-7-1,101,90,79,59,55,51,44,31,22,29.65,29.58,7,3,16,0.00
2013-7-2,100,89,80,60,52,46,38,29,22,29.78,29.63,9,3,18,0.00
2013-7-3,103,91,80,54,51,46,30,26,20,29.70,29.52,8,3,21,0.00
2013-7-4,101,90,79,57,51,43,32,27,22,29.58,29.47,9,4,21,0.00
2013-7-5,95,86,77,60,52,43,42,32,24,29.60,29.50,10,5,22,0.00
2013-7-6,99,87,72,55,51,36,50,31,17,29.62,29.51,7,3,18,0.00
2013-7-7,99,89,75,51,43,34,25,20,16,29.64,29.54,7,3,17,0.00
2013-7-8,102,89,73,47,41,34,26,19,14,29.77,29.63,6,3,17,0.00
2013-7-9,97,86,77,65,49,35,65,29,20,29.84,29.73,7,3,17,0.00
2013-7-10,94,84,72,68,58,44,79,43,25,29.78,29.66,7,3,16,0.00
2013-7-11,82,76,71,63,57,53,73,53,40,29.80,29.70,6,2,14,0.01
2013-7-12,91,81,72,59,56,51,60,42,33,29.79,29.66,6,2,14,0.00
2013-7-13,96,85,71,60,53,47,51,34,27,29.78,29.66,6,2,13,0.00
2013-7-14,98,87,75,57,51,45,40,30,23,29.75,29.61,6,2,14,0.00
2013-7-15,96,86,74,55,50,40,41,30,24,29.65,29.53,11,4,22,0.00
2013-7-16,92,82,71,43,38,33,30,22,13,29.77,29.62,7,3,18,0.00
2013-7-17,95,82,66,38,33,28,25,18,11,29.87,29.77,5,3,15,0.00
2013-7-18,99,86,71,45,36,28,21,17,14,29.82,29.67,6,3,14,0.00
2013-7-19,94,85,79,70,52,32,53,33,18,29.71,29.59,9,4,24,0.00
2013-7-20,90,79,71,69,66,59,88,64,45,29.71,29.60,7,3,15,0.01
2013-7-21,81,74,68,67,65,61,84,72,61,29.79,29.65,7,3,16,0.03
2013-7-22,82,75,68,67,64,60,86,69,55,29.85,29.75,7,2,14,0.09
2013-7-23,93,81,68,64,61,58,74,52,36,29.85,29.71,5,2,13,0.00
2013-7-24,97,86,73,62,57,51,55,40,30,29.76,29.64,6,2,15,0.00
2013-7-25,94,85,75,60,54,48,41,35,28,29.84,29.69,9,4,23,0.00
2013-7-26,88,82,77,65,60,53,62,48,40,29.89,29.78,6,2,14,0.00
2013-7-27,94,83,73,62,59,54,58,44,32,29.83,29.65,6,2,15,0.00
2013-7-28,95,84,73,54,49,41,44,31,22,29.69,29.58,9,3,21,0.00
2013-7-29,93,82,70,50,40,26,42,24,16,29.81,29.66,7,3,16,0.00
2013-7-30,94,83,69,56,49,43,42,32,24,29.88,29.80,7,3,16,0.00
2013-7-31,94,83,70,57,50,36,54,34,20,29.86,29.74,7,3,18,0.00
2013-8-1,95,83,69,40,31,18,23,16,10,29.77,29.65,7,3,17,0.00
2013-8-2,93,81,65,44,33,21,26,18,12,29.74,29.67,8,3,17,0.00
2013-8-3,94,82,67,46,32,14,28,17,10,29.79,29.70,7,3,17,0.00
2013-8-4,95,84,68,43,36,23,26,19,12,29.79,29.70,7,4,17,0.00
2013-8-5,94,83,66,45,34,17,29,18,11,29.79,29.69,9,4,20,0.00
2013-8-6,91,82,69,44,37,28,35,21,12,29.81,29.72,10,5,25,0.00
2013-8-7,92,80,65,42,34,28,26,20,14,29.83,29.75,7,2,17,0.00
2013-8-8,90,79,65,42,35,27,26,21,17,29.78,29.70,8,4,20,0.00
2013-8-9,91,78,64,40,33,22,26,20,14,29.75,29.69,6,3,19,0.00
2013-8-10,90,77,63,42,34,19,29,21,16,29.82,29.74,6,3,15,0.00
2013-8-11,91,78,64,45,39,34,33,25,17,29.82,29.71,6,3,15,0.00
2013-8-12,94,81,66,44,40,34,31,23,16,29.79,29.70,6,3,16,0.00
2013-8-13,95,83,68,46,40,34,29,22,16,29.80,29.71,6,3,14,0.00
2013-8-14,98,86,72,49,44,37,32,24,17,29.78,29.67,5,2,13,0.00
2013-8-15,97,87,74,54,47,36,32,26,20,29.77,29.68,7,3,17,0.00
2013-8-16,99,88,73,57,53,49,43,31,24,29.77,29.67,6,3,15,0.00
2013-8-17,99,88,76,59,52,46,37,30,23,29.76,29.60,8,3,18,0.00
2013-8-18,97,87,79,60,56,51,47,35,29,29.75,29.62,9,3,20,0.00
2013-8-19,95,83,71,60,57,53,59,43,28,29.79,29.68,6,2,15,0.00
2013-8-20,98,86,74,57,52,45,51,33,17,29.74,29.63,8,4,19,0.00
2013-8-21,98,88,75,52,48,42,34,26,20,29.74,29.65,6,3,15,0.00
2013-8-22,97,86,76,63,53,46,56,33,23,29.75,29.63,9,3,20,0.00
2013-8-23,92,82,70,61,58,46,65,45,29,29.70,29.58,9,3,18,0.00
2013-8-24,86,78,70,69,61,45,72,57,29,29.75,29.64,9,4,19,0.03
2013-8-25,83,73,65,66,62,57,78,68,55,29.84,29.74,9,4,22,0.00
2013-8-26,73,69,66,68,64,59,94,86,70,29.88,29.80,4,1,9,0.20
2013-8-27,90,76,63,67,63,59,90,67,36,29.82,29.68,4,1,16,0.00
2013-8-28,94,82,69,63,61,58,72,50,34,29.76,29.67,6,2,14,0.00
2013-8-29,86,77,70,71,67,58,87,73,47,29.91,29.76,7,2,21,0.35
2013-8-30,85,77,71,69,67,65,89,74,56,29.92,29.81,6,3,13,0.00
2013-8-31,89,79,73,67,65,59,77,62,44,29.85,29.72,8,2,20,0.00
2013-9-1,92,82,73,62,59,56,63,47,31,29.78,29.67,6,2,15,0.00
2013-9-2,94,82,70,60,56,54,56,42,30,29.79,29.67,6,2,15,0.00
2013-9-3,94,82,71,62,58,55,61,45,31,29.78,29.69,6,2,14,0.00
2013-9-4,93,82,72,66,59,55,56,46,34,29.82,29.74,8,2,18,0.00
2013-9-5,96,84,72,60,57,53,57,42,29,29.80,29.72,7,2,19,0.00
2013-9-6,96,83,72,60,55,52,50,40,28,29.77,29.69,8,2,17,0.00
2013-9-7,85,76,70,67,62,56,87,63,46,29.79,29.73,6,2,14,0.18
2013-9-8,87,76,66,64,59,52,76,57,37,29.76,29.66,6,2,14,0.00
2013-9-9,88,77,67,62,55,50,79,48,29,29.72,29.57,6,2,13,0.03
2013-9-10,86,75,67,63,54,48,84,51,32,29.76,29.66,7,3,17,0.00
2013-9-11,87,77,65,50,45,35,47,33,22,29.82,29.74,8,4,18,0.00
2013-9-12,90,79,64,46,40,34,35,26,19,29.81,29.69,6,2,14,0.00
2013-9-13,93,80,67,46,41,36,33,26,19,29.71,29.55,5,2,12,0.00
2013-9-14,95,83,70,51,46,41,37,29,22,29.61,29.52,5,2,13,0.00
2013-9-15,95,83,71,52,47,42,36,29,22,29.65,29.58,7,3,16,0.00
2013-9-16,95,84,72,50,47,43,38,28,21,29.69,29.58,6,4,19,0.00
2013-9-17,91,81,68,44,37,20,31,21,13,29.62,29.50,8,4,22,0.00
2013-9-18,87,73,59,41,34,20,36,24,15,29.66,29.52,5,2,12,0.00
2013-9-19,89,76,65,39,34,30,28,22,16,29.72,29.63,5,3,12,0.00
2013-9-20,88,78,67,46,40,33,34,27,19,29.69,29.59,9,5,21,0.00
2013-9-21,83,73,62,46,32,16,48,25,10,29.67,29.54,10,5,23,0.00
2013-9-22,74,63,50,42,34,26,69,36,19,29.80,29.56,11,3,21,0.00
2013-9-23,83,70,58,38,34,29,35,27,19,29.89,29.79,7,2,14,0.00
2013-9-24,85,74,63,42,38,34,34,27,21,29.85,29.67,10,4,23,0.00
2013-9-25,79,70,63,43,34,20,33,26,15,29.67,29.47,12,7,28,0.00
2013-9-26,67,58,47,43,32,12,72,41,13,29.82,29.49,8,3,19,0.00
2013-9-27,70,59,48,30,27,22,43,30,21,30.02,29.82,10,3,21,0.00
2013-9-28,77,64,50,32,27,23,37,26,18,30.07,29.96,6,2,13,0.00
2013-9-29,84,70,55,33,29,23,29,22,15,30.02,29.88,6,2,13,0.00
2013-9-30,86,72,57,36,32,24,31,23,16,29.89,29.75,5,2,11,0.00
2013-10-1,82,73,62,42,38,33,38,29,22,29.79,29.72,7,4,16,0.00
2013-10-2,80,72,63,45,35,20,42,27,15,29.76,29.67,9,5,23,0.00
2013-10-3,80,67,52,44,33,24,47,29,19,29.82,29.64,7,2,16,0.00
2013-10-4,67,59,51,25,20,14,30,22,18,30.15,29.82,10,6,20,0.00
2013-10-5,70,59,48,25,22,20,34,25,16,30.25,30.14,12,5,25,0.00
2013-10-6,77,63,50,27,22,18,29,21,15,30.18,30.00,4,2,11,0.00
2013-10-7,81,67,52,32,23,16,27,20,12,30.00,29.80,7,4,17,0.00
2013-10-8,75,65,51,35,29,22,35,26,19,29.79,29.59,10,4,20,0.00
2013-10-9,61,50,43,41,37,24,83,62,27,29.69,29.51,16,8,35,0.08
2013-10-10,63,51,38,40,36,31,81,59,40,29.97,29.69,7,2,16,0.00
2013-10-11,70,57,45,40,37,34,69,49,30,30.02,29.90,4,2,15,0.00
2013-10-12,73,61,48,42,37,33,58,43,26,29.93,29.80,7,3,15,0.00
2013-10-13,69,61,52,41,34,28,53,37,23,29.94,29.75,10,3,22,0.00
2013-10-14,68,58,48,35,31,27,48,37,26,30.06,29.94,5,2,13,0.00
2013-10-15,69,58,49,32,28,22,43,32,25,30.02,29.92,7,3,15,0.00
2013-10-16,68,56,47,29,24,18,39,29,20,30.12,30.01,7,3,15,0.00
2013-10-17,74,61,47,29,24,19,33,25,18,30.05,29.90,4,3,10,0.00
2013-10-19,78,64,52,29,24,20,28,22,15,30.04,29.94,6,3,11,0.00
2013-10-20,82,66,54,30,23,17,25,20,12,29.95,29.81,5,3,11,0.00
2013-10-21,79,66,54,29,23,17,24,20,16,29.94,29.85,4,3,13,0.00
2013-10-22,78,65,54,32,27,19,28,24,18,29.98,29.87,5,3,11,0.00
2013-10-23,78,65,53,32,28,23,32,25,19,29.88,29.79,6,3,13,0.00
2013-10-24,78,64,53,34,28,23,33,26,17,29.95,29.82,4,2,17,0.00
2013-10-25,81,66,54,32,27,22,29,23,17,30.03,29.95,5,2,11,0.00
2013-10-26,80,68,56,37,30,22,31,25,19,30.07,29.94,6,3,14,0.00
2013-10-27,79,67,55,38,32,28,40,29,20,29.94,29.57,11,6,24,0.00
2013-10-28,60,52,46,43,38,32,74,58,37,29.78,29.48,19,12,35,0.00
2013-10-29,57,49,40,37,32,26,69,54,43,29.93,29.79,7,2,16,0.00
2013-10-30,60,49,40,34,31,26,68,50,34,30.07,29.93,7,2,14,0.00
2013-10-31,65,53,40,29,26,21,54,37,24,30.16,30.06,6,2,13,0.00
2013-11-1,70,57,46,32,27,21,41,32,24,30.17,30.04,4,2,12,0.00
2013-11-2,73,59,46,34,29,23,44,33,20,30.05,29.81,5,3,14,0.00
2013-11-3,72,59,50,36,29,24,49,33,22,29.81,29.69,4,2,12,0.00
2013-11-4,62,54,46,39,31,22,51,42,30,29.91,29.66,6,2,13,0.00
2013-11-5,56,49,42,26,17,12,41,28,20,30.26,29.92,10,5,20,0.00
2013-11-6,64,51,40,18,14,10,30,23,15,30.35,30.25,5,2,11,0.00
2013-11-7,70,56,45,26,19,12,35,24,18,30.25,30.05,4,2,10,0.00
2013-11-8,74,61,49,25,20,14,26,21,15,30.05,29.90,5,2,9,0.00
2013-11-9,74,59,48,27,21,15,30,23,17,30.06,29.93,4,1,10,0.00
2013-11-10,71,58,49,31,23,14,38,26,20,30.11,30.04,4,2,9,0.00
2013-11-11,74,60,48,35,29,24,40,31,23,30.14,30.05,4,2,9,0.00
2013-11-12,74,63,51,31,27,24,35,26,20,30.19,30.10,5,2,10,0.00
2013-11-13,75,62,52,31,26,22,31,25,19,30.11,29.95,5,2,10,0.00
2013-11-14,76,64,55,32,27,21,29,24,19,29.99,29.65,9,3,19,0.00
2013-11-15,66,59,45,41,34,27,51,39,29,29.64,29.49,11,4,25,0.00
2013-11-16,59,50,44,42,37,28,76,62,49,29.86,29.59,7,2,16,0.00
2013-11-17,63,50,41,41,37,33,76,62,45,30.08,29.86,4,2,11,0.00
2013-11-18,65,52,42,43,40,35,83,65,45,30.12,29.98,5,2,10,0.00
2013-11-19,64,54,44,43,39,36,77,57,38,29.98,29.84,4,1,10,0.00
2013-11-20,63,53,46,44,39,34,77,59,44,29.84,29.75,8,2,19,0.00
2013-11-21,56,50,43,47,43,38,87,77,70,29.87,29.75,9,4,18,0.02
2013-11-22,45,40,37,41,36,34,90,87,81,30.03,29.84,6,3,15,0.29
2013-11-23,44,41,38,38,37,35,90,86,77,30.14,30.01,5,2,10,0.01
2013-11-24,50,44,39,39,37,34,92,78,63,30.23,30.13,5,2,11,0.00
2013-11-25,59,49,40,36,33,29,76,55,38,30.28,30.21,7,2,15,0.00
2013-11-26,58,49,41,36,32,29,64,52,38,30.27,30.15,4,2,9,0.00
2013-11-27,58,49,41,38,33,30,67,56,39,30.15,29.95,4,2,10,0.00
2013-11-28,56,46,38,35,31,28,70,56,42,30.11,29.97,4,2,9,0.00
2013-11-29,57,48,40,41,35,30,71,61,43,30.21,30.10,4,1,8,0.01
2013-11-30,60,51,43,37,33,30,71,53,36,30.23,30.13,4,2,9,0.00
2013-12-1,62,52,46,32,29,22,54,43,28,30.28,30.18,5,2,13,0.00
2013-12-2,71,58,46,31,26,23,43,30,18,30.19,29.78,6,2,14,0.00
2013-12-3,63,56,47,42,32,23,83,45,24,29.77,29.53,14,8,30,0.00
2013-12-4,48,39,32,42,21,10,86,51,35,29.98,29.55,12,3,25,0.01
2013-12-5,41,34,27,17,14,12,58,44,33,30.14,29.97,4,1,8,0.00
2013-12-6,44,37,30,29,25,15,73,60,50,30.18,30.07,6,3,15,0.00
2013-12-7,45,39,28,36,30,22,78,71,53,30.07,29.85,18,9,35,0.00
2013-12-8,39,32,25,23,17,9,77,55,41,30.28,30.02,4,1,13,0.00
2013-12-9,36,30,25,10,4,0,51,32,23,30.53,30.28,10,5,21,0.00
2013-12-10,46,34,24,8,4,-1,37,28,20,30.52,30.27,4,2,8,0.00
2013-12-11,52,41,29,17,13,7,39,32,25,30.34,30.27,4,2,10,0.00
2013-12-12,54,43,37,40,26,14,77,52,32,30.31,30.15,4,2,10,0.00
2013-12-13,61,48,38,28,22,15,62,37,19,30.30,30.12,6,2,15,0.00
2013-12-14,54,47,41,23,20,16,42,34,28,30.42,30.27,9,5,19,0.00
2013-12-15,62,50,40,25,21,18,41,32,24,30.40,30.26,4,2,10,0.00
2013-12-16,66,54,42,28,24,20,42,31,22,30.29,30.19,4,2,9,0.00
2013-12-17,67,55,46,29,25,22,40,31,24,30.24,30.06,5,2,10,0.00
2013-12-18,69,57,50,29,25,22,34,29,22,30.05,29.65,14,4,28,0.00
2013-12-19,54,46,38,36,33,22,88,63,30,29.73,29.55,13,6,29,0.18
2013-12-20,50,43,38,36,28,15,85,56,35,29.91,29.73,7,3,17,0.00
2013-12-21,59,48,37,33,26,13,61,43,28,30.06,29.83,7,2,17,0.00
2013-12-22,56,47,40,31,28,27,60,49,38,30.32,30.06,4,1,9,0.00
2013-12-23,57,48,42,32,29,27,56,48,38,30.42,30.31,4,1,9,0.00
2013-12-24,63,52,42,34,30,27,57,44,31,30.32,30.20,8,3,15,0.00
2013-12-25,58,50,44,30,24,16,53,37,25,30.34,30.24,9,3,18,0.00
2013-12-26,60,50,42,19,14,9,32,24,18,30.31,30.21,8,3,17,0.00
2013-12-27,65,52,41,20,14,8,29,22,17,30.28,30.10,5,2,9,0.00
2013-12-28,65,54,46,23,17,13,29,24,18,30.09,29.91,6,2,16,0.00
2013-12-29,54,48,40,20,15,10,37,27,21,30.25,30.02,12,4,23,0.00
2013-12-30,62,48,38,16,11,7,30,23,16,30.33,30.22,5,2,10,0.00
2013-12-31,61,50,41,18,13,6,28,23,18,30.24,30.11,4,2,9,0.00
2014-1-1,63,53,42,23,18,12,37,25,19,30.22,30.13,5,3,11,0.00
2014-1-2,63,50,41,28,24,20,44,36,27,30.18,30.07,6,3,10,0.00